Location: Area 52 Observatory
(34.2620°N, 119.2590°W)
Time: 09:58:38
(UTC-07:00)

Hubble Space Telescope - Pass Details

Date: 24 March 2019
Orbit: 536 x 540 km, 28.5° (Epoch: 17 October)

Event Time Altitude Azimuth Distance (km) Brightness Sun altitude
Rises 21:09:10 0° 242° (WSW) 2,673 4.9 -24.5°
Reaches altitude 10° 21:11:37 10° 232° (SW) 1,784 3.8 -25.0°
Enters shadow 21:13:18 20° 215° (SW) 1,264 2.7 -25.3°
